Date String (YYYY-MM-DD hh:mm:ss) UTC,Instrument flags,Ambient pressure (hPa),Sample flow (lpm),Bypass flow (lpm),Sample temperature (°C),Ambient temperature (°C),ASC tube jacket temperature (°C),LED temperature (°C),Box temperature (°C),Sample RH (%),Span deviation,Mass concentration (μg/m³),Mass concentration (μg/m³),Mass concentration (μg/m³)
DateTimeUTC,F1_M11,P_M11,Q1_M11,Q2_M11,T1_M11,T2_M11,T3_M11,T4_M11,T5_M11,U1_M11,ZSPAN_M11,X0_M11,X2_M11,X1_M11
2022-05-22 19:00:00,,0828.9,5.00,0.00,26.8,26.1,00.0,35.6,28.8,17.7,0000.0,0000.00,0000.00,0000.00
2022-05-22 19:01:00,,0828.9,4.99,0.00,26.8,26.1,00.0,35.6,28.8,18.2,0000.0,0000.00,0000.00,0000.00
2022-05-22 19:02:00,,0828.9,5.01,0.00,26.8,26.1,00.0,35.6,28.8,18.4,0000.0,0000.01,0000.00,0000.00
2022-05-22 19:03:00,,0828.9,4.99,0.00,26.9,26.1,00.0,35.6,28.8,17.6,0000.0,0000.05,0000.02,0000.00
2022-05-22 19:04:00,,0829.0,5.00,0.00,26.9,26.1,00.0,35.6,28.8,17.4,0000.0,0000.05,0000.02,0000.00
2022-05-22 19:05:00,,0828.9,5.01,0.00,26.9,26.1,00.0,35.6,28.8,18.1,0000.0,0000.05,0000.02,0000.00
2022-05-22 19:06:00,,0828.9,5.00,0.00,26.9,26.1,00.0,35.7,28.8,17.9,0000.0,0000.05,0000.02,0000.00
2022-05-22 19:07:00,,0828.9,4.99,0.00,26.9,26.1,00.0,35.7,28.8,17.5,0000.0,0000.06,0000.02,0000.00
2022-05-22 19:08:00,,0829.1,5.01,0.00,26.9,26.1,00.0,35.7,28.8,17.6,0000.0,0000.06,0000.02,0000.00
2022-05-22 19:09:00,,0828.8,5.00,0.00,26.9,26.1,00.0,35.7,28.8,16.8,0000.0,0000.06,0000.02,0000.00
2022-05-22 19:10:00,,0828.8,5.00,0.00,26.9,26.1,00.0,35.7,28.8,16.8,0000.0,0000.06,0000.02,0000.00
2022-05-22 19:11:00,,0828.8,4.99,0.00,26.9,26.1,00.0,35.7,28.7,16.9,0000.0,0000.06,0000.02,0000.00
2022-05-22 19:12:00,,0829.0,5.00,0.00,26.9,26.0,00.0,35.7,28.7,16.5,0000.0,0000.06,0000.02,0000.00
2022-05-22 19:13:00,,0829.2,5.01,0.00,26.9,26.0,00.0,35.7,28.7,16.8,0000.0,0000.06,0000.02,0000.00
2022-05-22 19:14:00,,0829.1,4.99,0.00,26.9,26.0,00.0,35.7,28.7,16.8,0000.0,0000.02,0000.01,0000.00
2022-05-22 19:15:00,,0828.7,4.98,0.00,26.9,26.0,00.0,35.7,28.7,17.1,0000.0,0000.78,0000.01,0000.00
2022-05-22 19:16:00,,0828.6,5.01,0.00,26.9,26.1,00.0,35.7,28.8,16.8,0000.0,0001.17,0000.01,0000.00
2022-05-22 19:17:00,,0828.9,5.01,0.00,26.9,26.1,00.0,35.8,28.8,16.4,0000.0,0001.17,0000.01,0000.00
2022-05-22 19:18:00,,0828.5,4.99,0.00,26.9,26.1,00.0,35.8,28.8,16.3,0000.0,0001.17,0000.01,0000.00
2022-05-22 19:19:00,,0828.6,5.00,0.00,26.9,26.2,00.0,35.8,28.9,16.7,0000.0,0001.23,0000.04,0000.00
2022-05-22 19:20:00,,0828.8,5.00,0.00,27.0,26.2,00.0,35.8,28.9,17.2,0000.0,0001.24,0000.04,0000.00
2022-05-22 19:21:00,,0828.6,5.00,0.00,27.0,26.2,00.0,35.8,28.9,17.1,0000.0,0001.26,0000.05,0000.01
2022-05-22 19:22:00,,0828.6,4.98,0.00,27.0,26.3,00.0,35.8,28.9,17.9,0000.0,0001.29,0000.05,0000.01
2022-05-22 19:23:00,,0828.5,5.00,0.00,27.0,26.3,00.0,35.8,28.9,17.4,0000.0,0001.30,0000.06,0000.01
2022-05-22 19:24:00,,0828.6,5.01,0.00,27.0,26.3,00.0,35.8,28.9,16.9,0000.0,0001.95,0000.06,0000.01
2022-05-22 19:25:00,,0828.6,4.99,0.00,27.0,26.3,00.0,35.9,29.0,17.5,0000.0,0003.12,0000.06,0000.01
2022-05-22 19:26:00,,0829.0,5.01,0.00,27.0,26.3,00.0,35.9,29.0,17.4,0000.0,0002.46,0000.06,0000.01
2022-05-22 19:27:00,,0828.9,5.00,0.00,27.1,26.3,00.0,35.9,29.0,16.6,0000.0,0001.97,0000.06,0000.01
2022-05-22 19:28:00,,0828.5,4.99,0.00,27.1,26.3,00.0,35.9,29.0,15.9,0000.0,0001.97,0000.06,0000.01
2022-05-22 19:29:00,,0828.5,5.01,0.00,27.1,26.4,00.0,35.9,29.1,16.0,0000.0,0001.97,0000.06,0000.01
2022-05-22 19:30:00,,0828.5,5.01,0.00,27.1,26.4,00.0,35.9,29.1,16.0,0000.0,0001.91,0000.03,0000.01
2022-05-22 19:31:00,,0828.5,5.00,0.00,27.2,26.5,00.0,35.9,29.1,16.4,0000.0,0001.89,0000.03,0000.01
2022-05-22 19:32:00,,0828.3,5.01,0.00,27.2,26.5,00.0,35.9,29.2,16.2,0000.0,0001.87,0000.02,0000.00
2022-05-22 19:33:00,,0828.3,4.99,0.00,27.2,26.5,00.0,36.0,29.2,16.2,0000.0,0001.84,0000.01,0000.00
2022-05-22 19:34:00,,0828.3,5.00,0.00,27.2,26.6,00.0,36.0,29.2,17.2,0000.0,0001.83,0000.01,0000.00
2022-05-22 19:35:00,,0828.3,5.00,0.00,27.2,26.6,00.0,36.0,29.2,17.6,0000.0,0001.38,0000.00,0000.00
2022-05-22 19:36:00,,0828.3,5.00,0.00,27.3,26.5,00.0,36.0,29.2,18.1,0000.0,0000.00,0000.00,0000.00
2022-05-22 19:37:00,,0828.3,4.99,0.00,27.3,26.5,00.0,36.0,29.2,18.1,0000.0,0000.00,0000.00,0000.00
2022-05-22 19:38:00,,0828.4,5.00,0.00,27.3,26.5,00.0,36.1,29.2,17.6,0000.0,0000.00,0000.00,0000.00
2022-05-22 19:39:00,,0828.3,5.00,0.00,27.3,26.5,00.0,36.1,29.2,18.3,0000.0,0000.00,0000.00,0000.00
2022-05-22 19:40:00,,0828.3,5.00,0.00,27.3,26.5,00.0,36.1,29.2,17.8,0000.0,0000.00,0000.00,0000.00
2022-05-22 19:41:00,,0828.3,5.00,0.00,27.3,26.6,00.0,36.1,29.3,16.9,0000.0,0000.00,0000.00,0000.00
2022-05-22 19:42:00,,0828.2,5.00,0.00,27.3,26.6,00.0,36.1,29.3,17.6,0000.0,0000.01,0000.01,0000.00
2022-05-22 19:43:00,,0828.1,5.00,0.00,27.4,26.6,00.0,36.1,29.3,17.5,0000.0,0000.05,0000.02,0000.00
2022-05-22 19:44:00,,0828.2,4.99,0.00,27.4,26.7,00.0,36.2,29.3,18.6,0000.0,0000.05,0000.02,0000.00
2022-05-22 19:45:00,,0828.3,5.03,0.00,27.4,26.7,00.0,36.2,29.4,18.7,0000.0,0000.05,0000.02,0000.00
2022-05-22 19:46:00,,0828.2,5.00,0.00,27.4,26.7,00.0,36.2,29.4,18.1,0000.0,0000.05,0000.02,0000.00
2022-05-22 19:47:00,,0828.2,5.01,0.00,27.4,26.7,00.0,36.2,29.4,18.5,0000.0,0000.05,0000.02,0000.00
2022-05-22 19:48:00,,0828.1,5.00,0.00,27.4,26.7,00.0,36.2,29.4,17.8,0000.0,0000.09,0000.03,0000.00
2022-05-22 19:49:00,,0828.2,5.00,0.00,27.5,26.7,00.0,36.2,29.4,17.6,0000.0,0000.09,0000.03,0000.00
2022-05-22 19:50:00,,0828.2,5.00,0.00,27.5,26.7,00.0,36.3,29.4,18.1,0000.0,0000.09,0000.03,0000.00
2022-05-22 19:51:00,,0828.1,5.00,0.00,27.5,26.7,00.0,36.3,29.4,17.5,0000.0,0000.09,0000.03,0000.00
2022-05-22 19:52:00,,0828.1,5.00,0.00,27.5,26.7,00.0,36.3,29.4,17.4,0000.0,0000.09,0000.03,0000.00
2022-05-22 19:53:00,,0828.2,4.99,0.00,27.5,26.7,00.0,36.3,29.4,17.9,0000.0,0000.08,0000.02,0000.00
2022-05-22 19:54:00,,0828.1,5.00,0.00,27.5,26.7,00.0,36.3,29.4,17.8,0000.0,0000.05,0000.02,0000.00
2022-05-22 19:55:00,,0828.1,5.00,0.00,27.5,26.7,00.0,36.3,29.4,17.6,0000.0,0000.05,0000.02,0000.00
2022-05-22 19:56:00,,0828.1,5.01,0.00,27.5,26.7,00.0,36.3,29.4,17.5,0000.0,0000.05,0000.02,0000.00
2022-05-22 19:57:00,,0828.1,4.99,0.00,27.5,26.8,00.0,36.4,29.5,17.6,0000.0,0000.05,0000.02,0000.00
2022-05-22 19:58:00,,0828.2,5.00,0.00,27.6,26.8,00.0,36.4,29.5,17.0,0000.0,0000.05,0000.02,0000.00
2022-05-22 19:59:00,,0828.2,5.00,0.00,27.6,26.8,00.0,36.4,29.5,16.2,0000.0,0000.02,0000.01,0000.00
